NORTHEAST SUFFOLK  -  Rip Current Statement Rip Current Statement        NORTHERN NASSAU  -  Rip Current Statement Rip Current Statement        NORTHERN QUEENS  -  Rip Current Statement Rip Current Statement        NORTHWEST SUFFOLK  -  Rip Current Statement Rip Current Statement        SOUTHEAST SUFFOLK  -  Rip Current Statement Rip Current Statement        SOUTHERN NASSAU  -  Rip Current Statement Rip Current Statement        SOUTHERN QUEENS  -  Rip Current Statement Rip Current Statement        SOUTHWEST SUFFOLK  -  Rip Current Statement Rip Current Statement      

Active alerts

Northern Queens
  Details for Northern Queens Rip Current Statement
Southern Queens
  Details for Southern Queens Rip Current Statement
Northern Nassau
  Details for Northern Nassau Rip Current Statement
Southern Nassau
  Details for Southern Nassau Rip Current Statement
Northwest Suffolk
  Details for Northwest Suffolk Rip Current Statement
Southwest Suffolk
  Details for Southwest Suffolk Rip Current Statement
Northeast Suffolk
  Details for Northeast Suffolk Rip Current Statement
Southeast Suffolk
  Details for Southeast Suffolk Rip Current Statement


WXM80 ListenWXM80 Stop

You find our weather info also at:

UK Metoffice

WeatherCloud

Weather Underground

Northeastern Weather Network

AWEKAS

Citizen Weather Observer Program (CWOP)

HAMweather, WeatherForYou, PWS Weather


Weather Underground History page Text

Daily Summary for December 31, 2017 Units:  English    Metric   Both
« Previous Day
Next Day »
Daily Weekly Monthly Yearly Custom
  High: Low: Average:
Temperature: 22.6 °F 10.9 °F 16.5 °F
Dew Point: 16.8 °F 0.9 °F 5.7 °F
Humidity: 78 % 51 % 62 %
Wind Speed: 13.6 mph 1.0 mph 5.9 mph
Wind Gust: 26.5 mph - -
Wind:- - WNW
Pressure: 30.31 in 30.01 in -
Precipitation: 0.00 in    
Historical Graphs
 
 
Tabular Data for December 31, 2017
Time Temperature Dew Point Pressure Wind Wind Speed Wind Gust Humidity Rainfall Rate (Hourly)
00:02 22.6 °F 16.8 °F 30.02 in West 3.7 mph 13.8 mph 78 % 0.00 in
00:07 22.5 °F 15.8 °F 30.01 in WNW 7.8 mph 15.0 mph 75 % 0.00 in
00:12 22.4 °F 15.4 °F 30.02 in WNW 5.9 mph 9.2 mph 74 % 0.00 in
00:13 22.4 °F 15.4 °F 30.02 in WNW 6.7 mph 11.5 mph 74 % 0.00 in
00:16 22.4 °F 15.7 °F 30.02 in West 5.0 mph 12.0 mph 75 % 0.00 in
00:21 22.3 °F 15.6 °F 30.02 in West 6.0 mph 13.0 mph 75 % 0.00 in
00:23 22.2 °F 15.2 °F 30.03 in NW 8.6 mph 12.7 mph 74 % 0.00 in
00:27 22.1 °F 14.8 °F 30.03 in West 9.3 mph 15.0 mph 73 % 0.00 in
00:32 22.0 °F 14.3 °F 30.03 in North 8.7 mph 15.0 mph 72 % 0.00 in
00:36 21.9 °F 14.3 °F 30.03 in WNW 6.2 mph 12.7 mph 72 % 0.00 in
00:39 21.9 °F 14.6 °F 30.03 in NW 9.8 mph 18.4 mph 73 % 0.00 in
00:42 21.8 °F 14.5 °F 30.03 in West 8.5 mph 12.7 mph 73 % 0.00 in
00:46 21.8 °F 14.5 °F 30.03 in WNW 7.2 mph 10.4 mph 73 % 0.00 in
00:48 21.7 °F 14.4 °F 30.03 in WNW 9.6 mph 19.0 mph 73 % 0.00 in
00:53 21.6 °F 14.3 °F 30.03 in WNW 5.9 mph 15.0 mph 73 % 0.00 in
00:59 21.6 °F 14.3 °F 30.04 in WNW 3.5 mph 15.0 mph 73 % 0.00 in
01:02 21.6 °F 14.3 °F 30.04 in WNW 7.3 mph 11.5 mph 73 % 0.00 in
01:05 21.5 °F 14.2 °F 30.03 in NW 7.5 mph 13.0 mph 73 % 0.00 in
01:08 21.5 °F 14.2 °F 30.04 in North 8.9 mph 16.1 mph 73 % 0.00 in
01:13 21.5 °F 13.9 °F 30.04 in WNW 8.1 mph 11.0 mph 72 % 0.00 in
01:16 21.4 °F 13.8 °F 30.04 in West 9.4 mph 18.4 mph 72 % 0.00 in
01:21 21.4 °F 13.8 °F 30.03 in NW 7.6 mph 15.0 mph 72 % 0.00 in
01:26 21.4 °F 14.1 °F 30.04 in NW 6.0 mph 18.0 mph 73 % 0.00 in
01:31 21.4 °F 13.8 °F 30.03 in WNW 6.4 mph 15.0 mph 72 % 0.00 in
01:36 21.4 °F 14.1 °F 30.04 in WNW 7.7 mph 13.8 mph 73 % 0.00 in
01:41 21.3 °F 14.0 °F 30.04 in SW 4.6 mph 12.0 mph 73 % 0.00 in
01:42 21.3 °F 14.0 °F 30.04 in WNW 8.6 mph 12.7 mph 73 % 0.00 in
01:47 21.3 °F 13.7 °F 30.04 in WNW 5.6 mph 15.0 mph 72 % 0.00 in
01:49 21.2 °F 13.6 °F 30.04 in NW 6.3 mph 15.0 mph 72 % 0.00 in
01:52 21.2 °F 13.3 °F 30.04 in WNW 4.6 mph 7.0 mph 71 % 0.00 in
01:57 21.1 °F 13.2 °F 30.04 in NW 3.0 mph 10.4 mph 71 % 0.00 in
01:59 21.1 °F 13.2 °F 30.04 in WNW 5.7 mph 8.0 mph 71 % 0.00 in
02:04 21.0 °F 13.1 °F 30.04 in WNW 7.0 mph 16.1 mph 71 % 0.00 in
02:07 21.0 °F 13.1 °F 30.04 in West 7.6 mph 13.8 mph 71 % 0.00 in
02:08 21.0 °F 13.1 °F 30.04 in WNW 6.8 mph 11.5 mph 71 % 0.00 in
02:13 21.0 °F 13.7 °F 30.04 in West 9.3 mph 14.0 mph 73 % 0.00 in
02:18 20.9 °F 13.3 °F 30.04 in NW 3.9 mph 12.7 mph 72 % 0.00 in
02:23 20.9 °F 13.6 °F 30.05 in WNW 9.2 mph 11.5 mph 73 % 0.00 in
02:26 20.9 °F 13.6 °F 30.05 in NW 6.9 mph 11.5 mph 73 % 0.00 in
02:31 20.8 °F 13.2 °F 30.06 in NW 8.7 mph 17.3 mph 72 % 0.00 in
02:35 20.7 °F 12.8 °F 30.05 in West 7.9 mph 13.8 mph 71 % 0.00 in
02:37 20.7 °F 12.8 °F 30.06 in WNW 8.2 mph 13.8 mph 71 % 0.00 in
02:42 20.7 °F 12.8 °F 30.06 in WNW 6.3 mph 9.0 mph 71 % 0.00 in
02:47 20.6 °F 13.0 °F 30.06 in West 5.6 mph 11.5 mph 72 % 0.00 in
02:49 20.6 °F 12.7 °F 30.06 in West 5.3 mph 11.0 mph 71 % 0.00 in
02:54 20.5 °F 12.6 °F 30.07 in WNW 4.7 mph 10.4 mph 71 % 0.00 in
02:55 20.4 °F 12.5 °F 30.07 in WNW 4.9 mph 10.4 mph 71 % 0.00 in
02:56 20.4 °F 12.5 °F 30.07 in NW 3.3 mph 10.0 mph 71 % 0.00 in
03:01 20.3 °F 12.4 °F 30.07 in WSW 9.0 mph 18.4 mph 71 % 0.00 in
03:06 20.3 °F 12.1 °F 30.07 in WNW 6.1 mph 11.5 mph 70 % 0.00 in
03:10 20.3 °F 12.4 °F 30.08 in WNW 8.3 mph 16.0 mph 71 % 0.00 in
03:15 20.3 °F 12.4 °F 30.08 in West 5.6 mph 11.5 mph 71 % 0.00 in
03:21 20.2 °F 12.3 °F 30.08 in WNW 6.0 mph 17.0 mph 71 % 0.00 in
03:26 20.2 °F 12.0 °F 30.08 in WNW 5.0 mph 11.0 mph 70 % 0.00 in
03:28 20.2 °F 12.0 °F 30.08 in NW 8.4 mph 15.0 mph 70 % 0.00 in
03:33 20.2 °F 12.3 °F 30.09 in WNW 7.1 mph 11.5 mph 71 % 0.00 in
03:35 20.2 °F 12.3 °F 30.09 in WNW 8.4 mph 15.0 mph 71 % 0.00 in
03:40 20.2 °F 12.0 °F 30.09 in West 6.2 mph 13.8 mph 70 % 0.00 in
03:43 20.1 °F 11.9 °F 30.09 in WSW 4.7 mph 8.0 mph 70 % 0.00 in
03:46 20.1 °F 11.9 °F 30.09 in WNW 6.4 mph 11.5 mph 70 % 0.00 in
03:51 20.0 °F 11.8 °F 30.09 in WNW 5.7 mph 10.4 mph 70 % 0.00 in
03:56 20.0 °F 12.1 °F 30.10 in WNW 4.6 mph 8.1 mph 71 % 0.00 in
03:58 19.9 °F 12.0 °F 30.10 in NW 6.6 mph 11.5 mph 71 % 0.00 in
04:03 19.9 °F 12.0 °F 30.10 in NW 8.9 mph 16.1 mph 71 % 0.00 in
04:06 19.9 °F 12.0 °F 30.10 in WNW 7.4 mph 17.0 mph 71 % 0.00 in
04:11 19.9 °F 12.0 °F 30.10 in West 2.7 mph 10.0 mph 71 % 0.00 in
04:12 19.9 °F 12.0 °F 30.11 in NW 7.6 mph 10.4 mph 71 % 0.00 in
04:15 19.8 °F 11.9 °F 30.10 in West 7.5 mph 16.1 mph 71 % 0.00 in
04:20 19.8 °F 12.2 °F 30.11 in NW 9.4 mph 17.3 mph 72 % 0.00 in
04:25 19.8 °F 12.2 °F 30.11 in West 9.2 mph 20.7 mph 72 % 0.00 in
04:30 19.8 °F 11.9 °F 30.11 in West 9.0 mph 15.0 mph 71 % 0.00 in
04:35 19.7 °F 12.1 °F 30.10 in NW 6.7 mph 15.0 mph 72 % 0.00 in
04:36 19.7 °F 12.1 °F 30.11 in WNW 6.5 mph 14.0 mph 72 % 0.00 in
04:38 19.6 °F 12.0 °F 30.11 in NNW 6.5 mph 11.5 mph 72 % 0.00 in
04:43 19.5 °F 11.9 °F 30.12 in NNW 6.1 mph 12.7 mph 72 % 0.00 in
04:48 19.5 °F 12.3 °F 30.12 in North 9.4 mph 15.0 mph 73 % 0.00 in
04:53 19.5 °F 11.9 °F 30.12 in WNW 4.4 mph 12.7 mph 72 % 0.00 in
04:57 19.5 °F 11.9 °F 30.12 in WNW 5.6 mph 13.8 mph 72 % 0.00 in
05:02 19.5 °F 11.9 °F 30.12 in WNW 9.0 mph 15.0 mph 72 % 0.00 in
05:04 19.5 °F 11.6 °F 30.12 in WNW 7.2 mph 13.8 mph 71 % 0.00 in
05:09 19.5 °F 11.6 °F 30.13 in NW 10.7 mph 20.7 mph 71 % 0.00 in
05:15 19.4 °F 11.5 °F 30.14 in WSW 9.0 mph 21.9 mph 71 % 0.00 in
05:18 19.4 °F 11.5 °F 30.13 in WNW 9.1 mph 15.0 mph 71 % 0.00 in
05:20 19.3 °F 11.1 °F 30.13 in NW 7.4 mph 18.0 mph 70 % 0.00 in
05:26 19.2 °F 10.7 °F 30.14 in WNW 10.0 mph 20.0 mph 69 % 0.00 in
05:31 19.1 °F 10.6 °F 30.14 in NW 10.0 mph 20.0 mph 69 % 0.00 in
05:32 19.1 °F 10.6 °F 30.14 in NW 9.4 mph 16.1 mph 69 % 0.00 in
05:37 19.0 °F 10.8 °F 30.14 in WNW 8.8 mph 12.7 mph 70 % 0.00 in
05:38 19.0 °F 10.8 °F 30.14 in WSW 6.6 mph 16.1 mph 70 % 0.00 in
05:41 19.0 °F 10.5 °F 30.14 in NW 7.0 mph 20.0 mph 69 % 0.00 in
05:46 18.9 °F 10.1 °F 30.15 in NW 13.6 mph 21.9 mph 68 % 0.00 in
05:50 18.8 °F 10.0 °F 30.14 in NNE 10.5 mph 26.5 mph 68 % 0.00 in
05:55 18.6 °F 9.8 °F 30.15 in NW 8.2 mph 17.3 mph 68 % 0.00 in
05:57 18.6 °F 9.8 °F 30.15 in West 7.4 mph 11.5 mph 68 % 0.00 in
06:00 18.5 °F 9.7 °F 30.16 in NW 8.0 mph 15.0 mph 68 % 0.00 in
06:03 18.4 °F 9.6 °F 30.16 in NW 10.0 mph 13.0 mph 68 % 0.00 in
06:08 18.2 °F 8.7 °F 30.16 in WNW 8.0 mph 9.2 mph 66 % 0.00 in
06:12 18.1 °F 8.3 °F 30.17 in NW 10.4 mph 25.3 mph 65 % 0.00 in
06:14 18.0 °F 8.9 °F 30.17 in WNW 8.8 mph 13.8 mph 67 % 0.00 in
06:17 18.0 °F 9.2 °F 30.18 in NW 8.0 mph 11.5 mph 68 % 0.00 in
06:22 17.9 °F 8.8 °F 30.17 in WNW 10.1 mph 19.0 mph 67 % 0.00 in
06:26 17.9 °F 8.5 °F 30.19 in WNW 8.0 mph 20.0 mph 66 % 0.00 in
06:31 17.8 °F 8.0 °F 30.18 in WNW 6.0 mph 18.0 mph 65 % 0.00 in
06:36 17.7 °F 7.9 °F 30.18 in WNW 6.0 mph 13.0 mph 65 % 0.00 in
06:41 17.6 °F 7.8 °F 30.19 in West 5.4 mph 17.3 mph 65 % 0.00 in
06:46 17.5 °F 7.7 °F 30.18 in WSW 7.1 mph 16.1 mph 65 % 0.00 in
06:47 17.5 °F 7.7 °F 30.19 in WNW 6.0 mph 16.1 mph 65 % 0.00 in
06:48 17.5 °F 7.7 °F 30.19 in NW 8.0 mph 16.1 mph 65 % 0.00 in
06:53 17.4 °F 8.0 °F 30.18 in NNW 8.0 mph 17.3 mph 66 % 0.00 in
06:58 17.3 °F 7.2 °F 30.19 in WNW 6.8 mph 13.8 mph 64 % 0.00 in
07:00 17.3 °F 7.2 °F 30.19 in NW 7.6 mph 12.7 mph 64 % 0.00 in
07:04 17.1 °F 6.3 °F 30.19 in WSW 4.8 mph 16.1 mph 62 % 0.00 in
07:06 17.0 °F 6.9 °F 30.19 in NNW 7.3 mph 15.0 mph 64 % 0.00 in
07:11 17.0 °F 7.3 °F 30.19 in WNW 6.6 mph 16.0 mph 65 % 0.00 in
07:12 17.0 °F 7.3 °F 30.19 in NNW 8.7 mph 16.1 mph 65 % 0.00 in
07:17 16.8 °F 6.4 °F 30.19 in WSW 11.1 mph 19.6 mph 63 % 0.00 in
07:21 16.6 °F 6.2 °F 30.19 in WNW 6.0 mph 12.7 mph 63 % 0.00 in
07:27 16.5 °F 6.8 °F 30.20 in NW 6.4 mph 16.0 mph 65 % 0.00 in
07:31 16.4 °F 6.0 °F 30.20 in NW 7.7 mph 17.3 mph 63 % 0.00 in
07:36 16.3 °F 5.5 °F 30.21 in NNW 8.5 mph 18.4 mph 62 % 0.00 in
07:38 16.3 °F 5.9 °F 30.20 in NNW 7.0 mph 12.7 mph 63 % 0.00 in
07:44 16.2 °F 5.8 °F 30.21 in WNW 5.7 mph 19.6 mph 63 % 0.00 in
07:45 16.2 °F 5.8 °F 30.20 in WNW 6.0 mph 13.8 mph 63 % 0.00 in
07:50 16.2 °F 5.1 °F 30.21 in NNE 5.3 mph 15.0 mph 61 % 0.00 in
07:54 16.1 °F 5.4 °F 30.21 in NNW 4.9 mph 9.2 mph 62 % 0.00 in
07:59 16.2 °F 5.8 °F 30.21 in NNW 6.5 mph 16.1 mph 63 % 0.00 in
08:04 16.2 °F 5.5 °F 30.21 in NNW 8.7 mph 12.7 mph 62 % 0.00 in
08:06 16.1 °F 5.0 °F 30.21 in NNW 7.0 mph 17.0 mph 61 % 0.00 in
08:11 16.1 °F 5.0 °F 30.20 in NNW 5.4 mph 11.0 mph 61 % 0.00 in
08:15 16.0 °F 4.9 °F 30.21 in NW 5.3 mph 19.6 mph 61 % 0.00 in
08:20 16.0 °F 5.3 °F 30.21 in North 7.1 mph 11.5 mph 62 % 0.00 in
08:22 16.1 °F 5.0 °F 30.21 in NW 6.3 mph 11.5 mph 61 % 0.00 in
08:27 16.0 °F 4.9 °F 30.21 in North 5.4 mph 9.2 mph 61 % 0.00 in
08:32 15.9 °F 4.4 °F 30.20 in NNE 5.6 mph 9.2 mph 60 % 0.00 in
08:34 15.8 °F 4.4 °F 30.20 in NW 4.9 mph 12.0 mph 60 % 0.00 in
08:39 15.7 °F 4.3 °F 30.21 in North 5.6 mph 12.7 mph 60 % 0.00 in
08:44 15.6 °F 4.2 °F 30.20 in NNW 3.3 mph 10.4 mph 60 % 0.00 in
08:45 15.6 °F 4.2 °F 30.21 in North 5.1 mph 8.1 mph 60 % 0.00 in
08:50 15.7 °F 4.6 °F 30.21 in NW 5.7 mph 12.7 mph 61 % 0.00 in
08:51 15.7 °F 4.6 °F 30.21 in North 6.0 mph 11.0 mph 61 % 0.00 in
08:55 15.8 °F 4.7 °F 30.22 in NW 5.6 mph 11.5 mph 61 % 0.00 in
08:56 15.8 °F 4.7 °F 30.22 in NW 6.4 mph 11.5 mph 61 % 0.00 in
09:01 16.1 °F 5.4 °F 30.22 in NW 5.9 mph 9.2 mph 62 % 0.00 in
09:02 16.2 °F 5.5 °F 30.23 in NW 5.3 mph 10.4 mph 62 % 0.00 in
09:07 16.3 °F 5.2 °F 30.23 in NE 6.6 mph 10.4 mph 61 % 0.00 in
09:08 16.3 °F 5.2 °F 30.23 in North 6.3 mph 10.4 mph 61 % 0.00 in
09:13 16.3 °F 4.8 °F 30.22 in NNW 5.1 mph 10.4 mph 60 % 0.00 in
09:18 16.2 °F 4.4 °F 30.22 in NNW 4.1 mph 13.8 mph 59 % 0.00 in
09:19 16.2 °F 4.4 °F 30.22 in WSW 4.3 mph 9.2 mph 59 % 0.00 in
09:24 16.1 °F 4.3 °F 30.23 in NW 3.5 mph 6.9 mph 59 % 0.00 in
09:25 16.1 °F 4.3 °F 30.23 in NW 5.8 mph 11.5 mph 59 % 0.00 in
09:30 16.0 °F 4.5 °F 30.23 in North 4.2 mph 4.6 mph 60 % 0.00 in
09:32 16.0 °F 4.5 °F 30.23 in NNW 5.2 mph 8.0 mph 60 % 0.00 in
09:34 16.0 °F 4.5 °F 30.24 in NW 3.5 mph 7.0 mph 60 % 0.00 in
09:38 16.1 °F 4.6 °F 30.24 in North 4.0 mph 10.4 mph 60 % 0.00 in
09:43 16.2 °F 4.4 °F 30.24 in NW 7.1 mph 13.0 mph 59 % 0.00 in
09:48 16.3 °F 3.7 °F 30.24 in NNW 8.4 mph 17.3 mph 57 % 0.00 in
09:51 16.4 °F 3.8 °F 30.25 in West 7.4 mph 12.7 mph 57 % 0.00 in
09:55 16.4 °F 3.8 °F 30.25 in WNW 5.6 mph 14.0 mph 57 % 0.00 in
09:58 16.5 °F 3.9 °F 30.26 in WNW 5.4 mph 11.5 mph 57 % 0.00 in
10:02 16.6 °F 3.6 °F 30.27 in NNW 7.0 mph 12.7 mph 56 % 0.00 in
10:07 16.7 °F 3.7 °F 30.27 in NW 3.9 mph 8.1 mph 56 % 0.00 in
10:09 16.8 °F 4.2 °F 30.28 in NNW 4.3 mph 8.1 mph 57 % 0.00 in
10:11 16.8 °F 4.2 °F 30.28 in WNW 3.0 mph 10.0 mph 57 % 0.00 in
10:16 17.1 °F 4.4 °F 30.27 in NW 6.0 mph 12.0 mph 57 % 0.00 in
10:20 17.2 °F 4.6 °F 30.27 in WNW 4.9 mph 11.5 mph 57 % 0.00 in
10:21 17.2 °F 4.6 °F 30.27 in WNW 6.0 mph 17.0 mph 57 % 0.00 in
10:26 17.3 °F 5.0 °F 30.26 in NW 5.3 mph 12.0 mph 58 % 0.00 in
10:28 17.3 °F 5.0 °F 30.26 in NW 3.6 mph 6.9 mph 58 % 0.00 in
10:33 17.6 °F 5.3 °F 30.26 in WNW 7.5 mph 11.5 mph 58 % 0.00 in
10:35 17.6 °F 4.5 °F 30.26 in NNW 6.0 mph 15.0 mph 56 % 0.00 in
10:40 17.5 °F 4.8 °F 30.25 in NNW 3.9 mph 8.0 mph 57 % 0.00 in
10:45 17.6 °F 4.9 °F 30.24 in NNW 5.0 mph 10.0 mph 57 % 0.00 in
10:46 17.6 °F 4.9 °F 30.24 in NNW 5.0 mph 10.4 mph 57 % 0.00 in
10:48 17.6 °F 4.2 °F 30.24 in WNW 6.9 mph 11.5 mph 55 % 0.00 in
10:53 17.6 °F 3.8 °F 30.25 in NW 4.3 mph 10.4 mph 54 % 0.00 in
10:55 17.5 °F 4.1 °F 30.25 in WNW 6.9 mph 11.5 mph 55 % 0.00 in
10:56 17.5 °F 4.1 °F 30.25 in NW 8.2 mph 13.8 mph 55 % 0.00 in
11:01 17.5 °F 4.1 °F 30.24 in WNW 7.1 mph 11.5 mph 55 % 0.00 in
11:04 17.5 °F 4.5 °F 30.24 in NW 3.4 mph 10.4 mph 56 % 0.00 in
11:07 17.6 °F 4.9 °F 30.23 in NW 7.1 mph 12.7 mph 57 % 0.00 in
11:11 17.7 °F 3.8 °F 30.23 in NNW 8.7 mph 16.1 mph 54 % 0.00 in
11:16 17.7 °F 3.8 °F 30.23 in WNW 5.4 mph 16.1 mph 54 % 0.00 in
11:20 17.7 °F 4.2 °F 30.24 in NW 7.9 mph 13.8 mph 55 % 0.00 in
11:25 17.7 °F 4.6 °F 30.24 in NNW 7.3 mph 11.5 mph 56 % 0.00 in
11:27 17.7 °F 4.6 °F 30.24 in NW 1.5 mph 11.5 mph 56 % 0.00 in
11:32 17.9 °F 4.8 °F 30.24 in NW 3.6 mph 10.4 mph 56 % 0.00 in
11:33 18.0 °F 4.5 °F 30.23 in NW 5.2 mph 8.1 mph 55 % 0.00 in
11:38 18.1 °F 5.0 °F 30.22 in NNW 3.5 mph 5.0 mph 56 % 0.00 in
11:43 18.2 °F 4.7 °F 30.22 in NNW 4.2 mph 6.9 mph 55 % 0.00 in
11:48 18.2 °F 4.3 °F 30.21 in NNW 4.6 mph 11.5 mph 54 % 0.00 in
11:49 18.2 °F 4.7 °F 30.21 in WNW 3.7 mph 9.2 mph 55 % 0.00 in
11:50 18.2 °F 4.7 °F 30.22 in WNW 7.0 mph 12.0 mph 55 % 0.00 in
11:54 18.1 °F 4.6 °F 30.22 in North 4.9 mph 9.2 mph 55 % 0.00 in
11:59 18.1 °F 4.2 °F 30.20 in NNE 6.0 mph 9.2 mph 54 % 0.00 in
12:04 17.9 °F 3.6 °F 30.21 in NNW 2.4 mph 9.2 mph 53 % 0.00 in
12:07 18.0 °F 4.5 °F 30.21 in West 5.3 mph 10.4 mph 55 % 0.00 in
12:09 18.0 °F 4.1 °F 30.21 in NW 3.4 mph 10.4 mph 54 % 0.00 in
12:14 18.0 °F 4.1 °F 30.20 in NNW 3.8 mph 6.9 mph 54 % 0.00 in
12:20 18.0 °F 3.7 °F 30.20 in NNW 5.1 mph 9.2 mph 53 % 0.00 in
12:25 18.1 °F 4.6 °F 30.20 in North 3.8 mph 9.2 mph 55 % 0.00 in
12:26 18.1 °F 4.6 °F 30.20 in North 2.7 mph 5.8 mph 55 % 0.00 in
12:31 18.2 °F 4.3 °F 30.20 in West 3.7 mph 11.5 mph 54 % 0.00 in
12:32 18.3 °F 4.4 °F 30.20 in WNW 4.3 mph 5.8 mph 54 % 0.00 in
12:35 18.4 °F 4.5 °F 30.20 in WNW 1.0 mph 5.8 mph 54 % 0.00 in
12:40 18.5 °F 4.6 °F 30.20 in WNW 3.9 mph 11.5 mph 54 % 0.00 in
12:41 18.6 °F 5.1 °F 30.21 in SW 6.6 mph 9.2 mph 55 % 0.00 in
12:46 18.7 °F 4.8 °F 30.21 in NNW 5.8 mph 7.0 mph 54 % 0.00 in
12:47 18.7 °F 4.4 °F 30.21 in WNW 6.4 mph 11.5 mph 53 % 0.00 in
12:51 18.6 °F 4.3 °F 30.21 in WNW 4.3 mph 8.1 mph 53 % 0.00 in
12:56 18.7 °F 4.0 °F 30.21 in WNW 2.1 mph 4.6 mph 52 % 0.00 in
12:58 18.6 °F 3.9 °F 30.20 in NW 5.0 mph 6.9 mph 52 % 0.00 in
13:03 18.6 °F 4.3 °F 30.20 in WNW 4.4 mph 6.9 mph 53 % 0.00 in
13:07 18.6 °F 4.3 °F 30.20 in NNW 7.4 mph 9.2 mph 53 % 0.00 in
13:12 18.2 °F 3.1 °F 30.19 in NNW 5.0 mph 8.1 mph 51 % 0.00 in
13:17 18.0 °F 3.7 °F 30.19 in NW 4.0 mph 10.4 mph 53 % 0.00 in
13:18 18.0 °F 3.7 °F 30.19 in WNW 6.6 mph 11.5 mph 53 % 0.00 in
13:20 18.0 °F 3.7 °F 30.19 in NW 5.3 mph 10.4 mph 53 % 0.00 in
13:25 17.9 °F 3.6 °F 30.20 in NW 3.1 mph 6.9 mph 53 % 0.00 in
13:28 17.9 °F 4.0 °F 30.20 in WNW 4.9 mph 11.0 mph 54 % 0.00 in
13:31 17.9 °F 3.6 °F 30.20 in WNW 5.6 mph 9.2 mph 53 % 0.00 in
13:36 17.8 °F 3.5 °F 30.21 in NW 4.4 mph 8.1 mph 53 % 0.00 in
13:37 17.8 °F 4.3 °F 30.21 in WNW 4.7 mph 9.0 mph 55 % 0.00 in
13:41 17.8 °F 3.5 °F 30.21 in NW 5.6 mph 11.5 mph 53 % 0.00 in
13:46 17.8 °F 3.5 °F 30.22 in WNW 4.6 mph 12.0 mph 53 % 0.00 in
13:51 17.8 °F 3.9 °F 30.22 in NW 5.6 mph 11.5 mph 54 % 0.00 in
13:54 17.7 °F 3.8 °F 30.23 in NW 7.1 mph 11.5 mph 54 % 0.00 in
13:59 17.6 °F 3.8 °F 30.22 in WNW 6.5 mph 6.9 mph 54 % 0.00 in
14:03 17.6 °F 2.9 °F 30.21 in NW 6.9 mph 9.2 mph 52 % 0.00 in
14:08 17.5 °F 3.7 °F 30.21 in NW 4.9 mph 7.0 mph 54 % 0.00 in
14:13 17.5 °F 3.7 °F 30.22 in West 6.6 mph 16.1 mph 54 % 0.00 in
14:14 17.5 °F 3.7 °F 30.22 in NNW 5.2 mph 16.1 mph 54 % 0.00 in
14:19 17.5 °F 4.1 °F 30.24 in NNW 5.6 mph 10.4 mph 55 % 0.00 in
14:21 17.5 °F 4.1 °F 30.24 in WNW 2.1 mph 4.0 mph 55 % 0.00 in
14:23 17.5 °F 4.1 °F 30.24 in WSW 6.4 mph 13.8 mph 55 % 0.00 in
14:28 17.4 °F 3.6 °F 30.24 in WNW 5.8 mph 10.4 mph 54 % 0.00 in
14:31 17.4 °F 3.6 °F 30.24 in NNW 6.0 mph 10.0 mph 54 % 0.00 in
14:36 17.3 °F 3.5 °F 30.25 in NW 8.6 mph 13.8 mph 54 % 0.00 in
14:37 17.3 °F 3.5 °F 30.25 in WNW 2.8 mph 7.0 mph 54 % 0.00 in
14:42 17.1 °F 3.3 °F 30.25 in NW 4.1 mph 9.2 mph 54 % 0.00 in
14:43 17.1 °F 3.3 °F 30.25 in West 5.1 mph 12.7 mph 54 % 0.00 in
14:48 16.9 °F 3.5 °F 30.24 in WNW 5.3 mph 9.2 mph 55 % 0.00 in
14:53 16.7 °F 3.3 °F 30.24 in NW 7.0 mph 11.5 mph 55 % 0.00 in
14:54 16.7 °F 3.3 °F 30.24 in WNW 5.8 mph 11.5 mph 55 % 0.00 in
14:59 16.5 °F 3.1 °F 30.24 in WNW 5.7 mph 13.8 mph 55 % 0.00 in
15:02 16.4 °F 3.0 °F 30.24 in West 6.4 mph 13.8 mph 55 % 0.00 in
15:07 16.2 °F 3.2 °F 30.25 in NW 3.0 mph 9.2 mph 56 % 0.00 in
15:12 16.1 °F 3.5 °F 30.24 in SW 6.3 mph 11.5 mph 57 % 0.00 in
15:17 16.0 °F 3.4 °F 30.24 in NNW 6.9 mph 12.7 mph 57 % 0.00 in
15:20 15.9 °F 3.0 °F 30.25 in NW 4.3 mph 13.8 mph 56 % 0.00 in
15:23 15.8 °F 2.9 °F 30.25 in NNW 8.6 mph 17.3 mph 56 % 0.00 in
15:28 15.7 °F 2.8 °F 30.25 in NW 5.4 mph 11.5 mph 56 % 0.00 in
15:30 15.7 °F 3.1 °F 30.25 in West 7.3 mph 14.0 mph 57 % 0.00 in
15:35 15.5 °F 2.2 °F 30.26 in WSW 8.7 mph 12.7 mph 55 % 0.00 in
15:39 15.4 °F 2.1 °F 30.26 in NNW 7.0 mph 11.5 mph 55 % 0.00 in
15:44 15.3 °F 2.0 °F 30.26 in WNW 7.6 mph 12.7 mph 55 % 0.00 in
15:45 15.3 °F 2.0 °F 30.26 in NW 7.4 mph 12.7 mph 55 % 0.00 in
15:50 15.1 °F 2.2 °F 30.26 in WNW 3.7 mph 6.9 mph 56 % 0.00 in
15:55 15.0 °F 1.7 °F 30.26 in NW 8.4 mph 10.0 mph 55 % 0.00 in
15:59 14.9 °F 1.6 °F 30.25 in North 2.5 mph 11.5 mph 55 % 0.00 in
16:04 14.8 °F 1.9 °F 30.26 in WNW 5.9 mph 10.0 mph 56 % 0.00 in
16:08 14.6 °F 0.9 °F 30.26 in West 6.1 mph 12.7 mph 54 % 0.00 in
16:13 14.5 °F 1.2 °F 30.26 in WNW 4.8 mph 12.7 mph 55 % 0.00 in
16:17 14.5 °F 2.0 °F 30.26 in NW 5.3 mph 11.5 mph 57 % 0.00 in
16:22 14.5 °F 1.6 °F 30.26 in West 6.3 mph 12.7 mph 56 % 0.00 in
16:27 14.4 °F 1.9 °F 30.26 in WNW 4.4 mph 11.5 mph 57 % 0.00 in
16:29 14.3 °F 2.2 °F 30.26 in NW 5.5 mph 8.1 mph 58 % 0.00 in
16:30 14.3 °F 2.2 °F 30.26 in NW 8.1 mph 10.4 mph 58 % 0.00 in
16:35 14.3 °F 1.8 °F 30.26 in NNW 4.0 mph 8.1 mph 57 % 0.00 in
16:40 14.1 °F 1.6 °F 30.26 in North 3.8 mph 15.0 mph 57 % 0.00 in
16:45 14.1 °F 2.0 °F 30.26 in WNW 5.2 mph 11.5 mph 58 % 0.00 in
16:46 14.1 °F 2.0 °F 30.26 in NW 2.8 mph 6.9 mph 58 % 0.00 in
16:49 14.0 °F 1.9 °F 30.26 in WNW 3.4 mph 10.4 mph 58 % 0.00 in
16:53 14.0 °F 1.9 °F 30.26 in West 6.2 mph 11.5 mph 58 % 0.00 in
16:56 13.9 °F 1.5 °F 30.26 in NW 6.9 mph 11.5 mph 57 % 0.00 in
17:01 13.8 °F 1.7 °F 30.26 in NNE 3.0 mph 6.9 mph 58 % 0.00 in
17:03 13.8 °F 1.7 °F 30.26 in WNW 3.3 mph 10.4 mph 58 % 0.00 in
17:08 13.7 °F 2.0 °F 30.26 in NNW 3.5 mph 10.4 mph 59 % 0.00 in
17:10 13.7 °F 2.0 °F 30.27 in NNW 6.7 mph 13.0 mph 59 % 0.00 in
17:15 13.6 °F 1.5 °F 30.26 in West 4.7 mph 11.5 mph 58 % 0.00 in
17:17 13.6 °F 1.5 °F 30.27 in NNW 4.1 mph 9.2 mph 58 % 0.00 in
17:22 13.5 °F 1.4 °F 30.27 in NNW 6.1 mph 11.5 mph 58 % 0.00 in
17:27 13.5 °F 1.4 °F 30.27 in WNW 3.7 mph 8.1 mph 58 % 0.00 in
17:30 13.5 °F 1.8 °F 30.27 in NW 5.6 mph 10.0 mph 59 % 0.00 in
17:35 13.5 °F 2.2 °F 30.28 in NW 3.7 mph 11.5 mph 60 % 0.00 in
17:40 13.5 °F 2.2 °F 30.27 in NNW 6.0 mph 12.7 mph 60 % 0.00 in
17:41 13.5 °F 2.2 °F 30.27 in NNW 5.9 mph 12.7 mph 60 % 0.00 in
17:46 13.5 °F 1.8 °F 30.28 in NW 2.7 mph 6.9 mph 59 % 0.00 in
17:51 13.4 °F 1.4 °F 30.28 in NW 5.4 mph 10.4 mph 58 % 0.00 in
17:53 13.4 °F 1.4 °F 30.27 in NW 11.3 mph 13.0 mph 58 % 0.00 in
17:58 13.3 °F 1.3 °F 30.28 in WNW 5.3 mph 11.5 mph 58 % 0.00 in
18:03 13.2 °F 1.5 °F 30.28 in WNW 6.9 mph 8.1 mph 59 % 0.00 in
18:08 13.3 °F 2.3 °F 30.28 in NNW 5.3 mph 8.1 mph 61 % 0.00 in
18:14 13.2 °F 1.9 °F 30.28 in NNW 5.6 mph 11.5 mph 60 % 0.00 in
18:15 13.2 °F 1.9 °F 30.28 in North 4.5 mph 8.0 mph 60 % 0.00 in
18:20 13.2 °F 1.9 °F 30.28 in West 6.5 mph 12.7 mph 60 % 0.00 in
18:25 13.1 °F 1.8 °F 30.28 in NW 6.0 mph 13.0 mph 60 % 0.00 in
18:27 13.1 °F 1.8 °F 30.28 in North 7.0 mph 11.0 mph 60 % 0.00 in
18:32 13.2 °F 2.3 °F 30.28 in NW 8.0 mph 13.8 mph 61 % 0.00 in
18:33 13.1 °F 1.8 °F 30.28 in North 5.9 mph 11.5 mph 60 % 0.00 in
18:38 13.1 °F 1.8 °F 30.28 in WNW 5.5 mph 11.5 mph 60 % 0.00 in
18:40 13.1 °F 2.2 °F 30.28 in NNW 5.0 mph 12.0 mph 61 % 0.00 in
18:41 13.1 °F 2.2 °F 30.28 in NNW 4.4 mph 6.9 mph 61 % 0.00 in
18:46 13.1 °F 2.2 °F 30.28 in NNW 3.0 mph 10.0 mph 61 % 0.00 in
18:51 13.1 °F 1.8 °F 30.29 in WNW 7.6 mph 13.0 mph 60 % 0.00 in
18:52 13.1 °F 1.8 °F 30.29 in NNW 7.1 mph 11.5 mph 60 % 0.00 in
18:57 13.1 °F 1.8 °F 30.29 in NNW 5.4 mph 11.5 mph 60 % 0.00 in
18:59 13.0 °F 1.3 °F 30.29 in NW 5.5 mph 9.2 mph 59 % 0.00 in
19:04 13.0 °F 1.7 °F 30.29 in NNW 6.4 mph 17.3 mph 60 % 0.00 in
19:09 13.0 °F 1.3 °F 30.29 in WNW 5.0 mph 10.4 mph 59 % 0.00 in
19:15 13.0 °F 1.7 °F 30.29 in NW 3.2 mph 11.5 mph 60 % 0.00 in
19:16 12.9 °F 2.0 °F 30.29 in NNW 7.1 mph 9.2 mph 61 % 0.00 in
19:22 13.0 °F 2.1 °F 30.29 in NW 4.9 mph 11.5 mph 61 % 0.00 in
19:25 13.0 °F 2.1 °F 30.29 in NW 3.0 mph 4.6 mph 61 % 0.00 in
19:30 12.9 °F 2.0 °F 30.29 in NW 5.8 mph 10.4 mph 61 % 0.00 in
19:33 13.0 °F 2.4 °F 30.29 in NNW 5.1 mph 9.2 mph 62 % 0.00 in
19:34 13.0 °F 2.4 °F 30.29 in NW 2.3 mph 9.2 mph 62 % 0.00 in
19:39 13.0 °F 2.1 °F 30.29 in West 5.6 mph 9.2 mph 61 % 0.00 in
19:45 12.9 °F 2.3 °F 30.29 in NNW 5.5 mph 11.5 mph 62 % 0.00 in
19:47 13.0 °F 2.8 °F 30.29 in NW 5.9 mph 10.4 mph 63 % 0.00 in
19:52 12.9 °F 2.7 °F 30.29 in NW 6.8 mph 13.0 mph 63 % 0.00 in
19:56 12.9 °F 2.3 °F 30.29 in WNW 4.4 mph 11.0 mph 62 % 0.00 in
19:58 12.9 °F 2.3 °F 30.29 in NW 4.6 mph 12.7 mph 62 % 0.00 in
20:02 12.9 °F 2.3 °F 30.29 in West 6.5 mph 14.0 mph 62 % 0.00 in
20:07 12.8 °F 1.9 °F 30.29 in NNW 1.8 mph 6.9 mph 61 % 0.00 in
20:12 12.8 °F 2.2 °F 30.29 in NW 5.3 mph 11.5 mph 62 % 0.00 in
20:16 12.8 °F 2.2 °F 30.29 in North 5.2 mph 9.2 mph 62 % 0.00 in
20:17 12.8 °F 2.2 °F 30.29 in WNW 4.8 mph 11.5 mph 62 % 0.00 in
20:23 12.8 °F 1.9 °F 30.29 in NW 5.9 mph 10.4 mph 61 % 0.00 in
20:25 12.7 °F 2.1 °F 30.29 in WNW 5.6 mph 10.4 mph 62 % 0.00 in
20:30 12.7 °F 2.1 °F 30.29 in NW 3.4 mph 8.0 mph 62 % 0.00 in
20:32 12.7 °F 2.1 °F 30.29 in WNW 3.8 mph 6.9 mph 62 % 0.00 in
20:37 12.6 °F 1.7 °F 30.29 in WNW 3.4 mph 10.4 mph 61 % 0.00 in
20:38 12.6 °F 1.7 °F 30.29 in NW 5.1 mph 8.1 mph 61 % 0.00 in
20:43 12.5 °F 1.6 °F 30.29 in NW 7.7 mph 13.8 mph 61 % 0.00 in
20:48 12.5 °F 1.6 °F 30.29 in NW 3.9 mph 3.9 mph 61 % 0.00 in
20:52 12.5 °F 1.9 °F 30.29 in NW 5.5 mph 10.4 mph 62 % 0.00 in
20:57 12.4 °F 1.8 °F 30.29 in NW 4.2 mph 11.5 mph 62 % 0.00 in
21:02 12.3 °F 1.4 °F 30.29 in NW 5.6 mph 11.5 mph 61 % 0.00 in
21:03 12.3 °F 1.4 °F 30.29 in WNW 5.9 mph 11.5 mph 61 % 0.00 in
21:05 12.3 °F 1.4 °F 30.29 in NNW 5.6 mph 8.1 mph 61 % 0.00 in
21:09 12.3 °F 1.4 °F 30.29 in NNW 6.2 mph 10.0 mph 61 % 0.00 in
21:14 12.3 °F 1.4 °F 30.29 in WNW 3.8 mph 10.4 mph 61 % 0.00 in
21:16 12.3 °F 1.7 °F 30.29 in West 5.2 mph 10.0 mph 62 % 0.00 in
21:21 12.2 °F 1.7 °F 30.29 in WNW 7.1 mph 12.7 mph 62 % 0.00 in
21:25 12.2 °F 1.3 °F 30.29 in NW 1.9 mph 8.1 mph 61 % 0.00 in
21:26 12.2 °F 1.3 °F 30.29 in NNW 5.6 mph 8.1 mph 61 % 0.00 in
21:30 12.2 °F 1.7 °F 30.29 in WNW 5.4 mph 10.4 mph 62 % 0.00 in
21:31 12.2 °F 1.7 °F 30.30 in WNW 5.9 mph 10.4 mph 62 % 0.00 in
21:36 12.1 °F 1.9 °F 30.29 in NNW 5.6 mph 13.8 mph 63 % 0.00 in
21:37 12.1 °F 1.6 °F 30.29 in NNW 4.5 mph 13.8 mph 62 % 0.00 in
21:42 12.1 °F 2.2 °F 30.30 in NNW 5.9 mph 10.4 mph 64 % 0.00 in
21:47 12.0 °F 1.8 °F 30.29 in NW 3.9 mph 6.9 mph 63 % 0.00 in
21:48 12.0 °F 1.8 °F 30.29 in NW 7.5 mph 11.5 mph 63 % 0.00 in
21:50 11.9 °F 1.0 °F 30.29 in North 5.5 mph 11.5 mph 61 % 0.00 in
21:53 11.9 °F 1.4 °F 30.29 in NW 5.9 mph 9.2 mph 62 % 0.00 in
21:58 11.9 °F 1.4 °F 30.29 in NW 2.9 mph 5.8 mph 62 % 0.00 in
22:00 11.9 °F 1.7 °F 30.29 in WNW 2.6 mph 5.8 mph 63 % 0.00 in
22:05 11.8 °F 1.6 °F 30.29 in NW 3.4 mph 9.2 mph 63 % 0.00 in
22:07 11.8 °F 1.6 °F 30.29 in WNW 4.9 mph 16.1 mph 63 % 0.00 in
22:13 11.8 °F 1.3 °F 30.29 in WNW 7.1 mph 11.5 mph 62 % 0.00 in
22:18 11.8 °F 1.6 °F 30.30 in NW 5.1 mph 10.4 mph 63 % 0.00 in
22:22 11.8 °F 2.3 °F 30.30 in WNW 6.0 mph 10.4 mph 65 % 0.00 in
22:27 11.8 °F 2.3 °F 30.30 in North 3.5 mph 11.5 mph 65 % 0.00 in
22:32 11.7 °F 2.2 °F 30.30 in NNW 6.5 mph 11.5 mph 65 % 0.00 in
22:33 11.7 °F 2.2 °F 30.30 in North 7.0 mph 11.5 mph 65 % 0.00 in
22:34 11.7 °F 1.9 °F 30.30 in NNW 6.4 mph 11.5 mph 64 % 0.00 in
22:39 11.6 °F 2.1 °F 30.30 in North 5.8 mph 11.5 mph 65 % 0.00 in
22:44 11.6 °F 1.8 °F 30.30 in NNW 4.0 mph 8.1 mph 64 % 0.00 in
22:48 11.6 °F 2.1 °F 30.30 in NNW 8.2 mph 11.5 mph 65 % 0.00 in
22:53 11.5 °F 1.3 °F 30.30 in NW 5.8 mph 11.5 mph 63 % 0.00 in
22:58 11.4 °F 1.6 °F 30.30 in NW 4.9 mph 7.0 mph 64 % 0.00 in
23:03 11.4 °F 1.6 °F 30.30 in NNW 3.2 mph 16.0 mph 64 % 0.00 in
23:08 11.4 °F 1.9 °F 30.30 in NW 6.0 mph 14.0 mph 65 % 0.00 in
23:09 11.4 °F 1.9 °F 30.30 in NW 6.4 mph 6.9 mph 65 % 0.00 in
23:14 11.3 °F 1.5 °F 30.30 in North 6.1 mph 11.5 mph 64 % 0.00 in
23:17 11.3 °F 1.8 °F 30.30 in WNW 2.9 mph 5.0 mph 65 % 0.00 in
23:22 11.2 °F 2.0 °F 30.31 in North 5.1 mph 9.2 mph 66 % 0.00 in
23:23 11.2 °F 2.0 °F 30.30 in NW 4.0 mph 9.2 mph 66 % 0.00 in
23:28 11.2 °F 2.0 °F 30.30 in North 3.8 mph 7.0 mph 66 % 0.00 in
23:31 11.2 °F 2.0 °F 30.31 in NNW 7.4 mph 12.7 mph 66 % 0.00 in
23:35 11.1 °F 1.6 °F 30.30 in NNW 5.5 mph 9.2 mph 65 % 0.00 in
23:37 11.1 °F 1.6 °F 30.30 in NW 1.4 mph 3.5 mph 65 % 0.00 in
23:40 11.1 °F 1.6 °F 30.30 in NW 4.5 mph 6.9 mph 65 % 0.00 in
23:45 11.0 °F 1.5 °F 30.30 in NNW 5.6 mph 10.4 mph 65 % 0.00 in
23:50 10.9 °F 1.4 °F 30.30 in NW 6.2 mph 9.2 mph 65 % 0.00 in
23:52 10.9 °F 1.4 °F 30.30 in NW 10.3 mph 15.0 mph 65 % 0.00 in
23:57 10.9 °F 1.4 °F 30.30 in NW 5.3 mph 12.7 mph 65 % 0.00 in
23:58 10.9 °F 1.4 °F 30.30 in NNW 4.5 mph 11.5 mph 65 % 0.00 in
Crab Meadow Weather
Compliments of Weather Underground - 3.75 mb

Script developed by  Jim McMurry - jmcmurry@mwt.net Adapted for the template by  Wim van der Kuil - Leuven-Template.eu

One Inch of Rain: One inch of rain over one square mile equals to 17.4 million gallons of water.